Weather History for KMCO - July, 2014

Change the Weather History Date:

Friday, July 25, 2014

  Actual Average Record
Temperature  
Mean Temperature 84 °F 83 °F  
Max Temperature 92 °F 92 °F 99 °F (1962)
Min Temperature 75 °F 74 °F 67 °F (1918)
Degree Days  
Heating Degree Days 0 0  
Month to date heating degree days 0 0  
Since 1 June heating degree days 0 0  
Since 1 July heating degree days 0 0  
Cooling Degree Days 19 18  
Month to date cooling degree days 454 442  
Year to date cooling degree days 1891 1733  
Since 1 June cooling degree days 957 932  
Growing Degree Days 33 (Base 50)    
Moisture  
Dew Point 73 °F    
Average Humidity 75    
Maximum Humidity 94    
Minimum Humidity 56    
Precipitation  
Precipitation 0.01 in 0.25 in 3.75 in (1982)
Month to date precipitation 8.33 5.83  
Year to date precipitation 30.32 28.04  
Sea Level Pressure  
Sea Level Pressure 30.06 in    
Wind  
Wind Speed 4 mph (SW)    
Max Wind Speed 18 mph    
Max Gust Speed 25 mph    
Visibility 10 miles    
Events Rain , Thunderstorm    
T = Trace of Precipitation, MM = Missing Value Source: NWS Daily Summary

Daily Weather History Graph

Daily Weather History Graph

Search for Another Location

Airport or City:

Trip Planner

Search our weather history database for the weather conditions in past years. The results will help you decide how hot, cold, wet, or windy it might be!

Date:

Astronomy

Jul. 25, 2014 Rise Set
Actual Time 6:43 AM EDT 8:20 PM EDT
Civil Twilight 6:17 AM EDT 8:45 PM EDT
Nautical Twilight 5:46 AM EDT 9:16 PM EDT
Astronomical Twilight 5:13 AM EDT 9:49 PM EDT
Moon 5:38 AM EDT (7/25) 7:20 PM EDT (7/25)
Length of Visible Light 14h 28m
Length of Day
13h 36m
Waning Crescent, 1% of the Moon is Illuminated
Jul 25
Waning Crescent
Jul 26
New
Aug 3
First Quarter
Aug 10
Full
Aug 17
Last Quarter

Hourly Weather History & Observations

Time (EDT) Temp. Heat Index Dew Point Humidity Pressure Visibility Wind Dir Wind Speed Gust Speed Precip Events Conditions
12:53 AM 78.1 °F - 72.0 °F 81% 30.04 in 10.0 mi SW 3.5 mph - N/A   Partly Cloudy
1:53 AM 75.9 °F - 73.0 °F 91% 30.04 in 10.0 mi SSW 3.5 mph - N/A   Partly Cloudy
2:53 AM 75.9 °F - 72.0 °F 87% 30.05 in 10.0 mi South 3.5 mph - N/A   Partly Cloudy
3:53 AM 75.9 °F - 73.0 °F 91% 30.04 in 10.0 mi South 3.5 mph - N/A   Partly Cloudy
4:53 AM 75.0 °F - 73.0 °F 94% 30.04 in 10.0 mi Calm Calm - N/A   Clear
5:53 AM 75.0 °F - 73.0 °F 94% 30.06 in 10.0 mi Calm Calm - N/A   Partly Cloudy
6:53 AM 75.0 °F - 73.9 °F 96% 30.08 in 10.0 mi South 4.6 mph - N/A   Partly Cloudy
7:53 AM 79.0 °F - 75.0 °F 88% 30.08 in 10.0 mi WSW 4.6 mph - N/A   Partly Cloudy
8:53 AM 82.0 °F 89.4 °F 75.9 °F 82% 30.09 in 10.0 mi Calm Calm - N/A   Partly Cloudy
9:53 AM 84.9 °F 93.3 °F 75.0 °F 72% 30.09 in 10.0 mi WSW 5.8 mph - N/A   Partly Cloudy
10:53 AM 86.0 °F 92.2 °F 72.0 °F 63% 30.09 in 10.0 mi WSW 3.5 mph - N/A   Scattered Clouds
11:53 AM 89.1 °F 98.0 °F 73.9 °F 61% 30.08 in 10.0 mi South 5.8 mph - N/A   Scattered Clouds
12:53 PM 90.0 °F 97.9 °F 73.0 °F 57% 30.07 in 10.0 mi SSW 8.1 mph - N/A   Scattered Clouds
1:53 PM 90.0 °F 96.9 °F 72.0 °F 55% 30.06 in 10.0 mi Calm Calm - N/A   Mostly Cloudy
2:53 PM 91.9 °F 100.7 °F 73.0 °F 54% 30.04 in 10.0 mi South 9.2 mph - N/A   Mostly Cloudy
3:09 PM 90.0 °F 96.9 °F 72.0 °F 55% 30.05 in 10.0 mi SSW 8.1 mph - N/A Thunderstorm Thunderstorm
3:53 PM 81.0 °F 86.7 °F 75.0 °F 82% 30.03 in 8.0 mi West 12.7 mph - 0.01 in Rain , Thunderstorm Light Thunderstorms and Rain
4:14 PM 81.0 °F 86.7 °F 75.0 °F 82% 30.05 in 10.0 mi West 6.9 mph - 0.00 in   Mostly Cloudy
4:53 PM 81.0 °F 85.8 °F 73.0 °F 77% 30.01 in 10.0 mi WNW 6.9 mph - 0.00 in   Mostly Cloudy
5:53 PM 82.9 °F 88.8 °F 73.0 °F 72% 30.04 in 10.0 mi West 3.5 mph - N/A   Overcast
6:53 PM 81.0 °F 85.8 °F 73.0 °F 77% 30.07 in 10.0 mi ENE 9.2 mph - N/A   Overcast
7:53 PM 80.1 °F 83.6 °F 71.1 °F 74% 30.09 in 10.0 mi SE 5.8 mph - N/A   Overcast
8:53 PM 79.0 °F - 72.0 °F 79% 30.06 in 10.0 mi Calm Calm - 0.00 in   Overcast
9:53 PM 77.0 °F - 73.9 °F 90% 30.06 in 10.0 mi Calm Calm - 0.00 in   Mostly Cloudy
10:53 PM 78.1 °F - 73.9 °F 87% 30.08 in 10.0 mi Calm Calm - N/A   Overcast
11:53 PM 77.0 °F - 73.9 °F 90% 30.09 in 10.0 mi WSW 4.6 mph - N/A   Overcast